Florence, SC

7:36 PM EST on January 16, 2018 (GMT -0500)
Florence Regional

Weather History for KFLO - November, 2011

Change the Weather History Date:

Thursday, November 3, 2011

  Actual Average Record
Temperature  
Mean Temperature 52 °F 59 °F  
Max Temperature 71 °F 71 °F 89 °F (1974)
Min Temperature 33 °F 47 °F 27 °F (1954)
Degree Days  
Heating Degree Days 13 7  
Month to date heating degree days 41 21  
Since 1 July heating degree days 195 138  
Growing Degree Days 2 (Base 50)    
Moisture  
Dew Point 45 °F    
Average Humidity 70    
Maximum Humidity 96    
Minimum Humidity 44    
Precipitation  
Precipitation T in 0.09 in 2.12 in (1985)
Month to date precipitation T 0.26  
Year to date precipitation 26.03 37.49  
Sea Level Pressure  
Sea Level Pressure 30.09 in    
Wind  
Wind Speed 4 mph (SSE)    
Max Wind Speed 13 mph    
Max Gust Speed 17 mph    
Visibility 8 miles    
Events      
T = Trace of Precipitation, MM = Missing Value Source: NWS Daily Summary

Daily Weather History Graph

Daily Weather History Graph

Search for Another Location

Airport or City:

Trip Planner

Search our weather history database for the weather conditions in past years. The results will help you decide how hot, cold, wet, or windy it might be!

Date:

Astronomy

Nov. 03, 2011 Rise Set
Actual Time 7:40 AM EDT 6:24 PM EDT
Civil Twilight 7:14 AM EDT 6:50 PM EDT
Nautical Twilight 6:44 AM EDT 7:19 PM EDT
Astronomical Twilight 6:15 AM EDT 7:49 PM EDT
Moon 2:31 PM EDT (11/3) 1:08 AM EDT (11/3)
Length of Visible Light 11h 35m
Length of Day
10h 43m
First Quarter, 60% of the Moon is Illuminated
Nov 3
First Quarter
Nov 10
Full
Nov 18
Last Quarter
Nov 25
New
Dec 2
First Quarter

Hourly Weather History & Observations

Time (EDT) Temp. Dew Point Humidity Pressure Visibility Wind Dir Wind Speed Gust Speed Precip Events Conditions
12:53 AM 39.9 °F 37.0 °F 89% 30.29 in 8.0 mi Calm Calm - N/A   Clear
1:53 AM 39.0 °F 37.0 °F 93% 30.27 in 8.0 mi Calm Calm - N/A   Clear
2:53 AM 37.0 °F 35.1 °F 93% 30.27 in 5.0 mi Calm Calm - N/A   Clear
3:53 AM 36.0 °F 34.0 °F 93% 30.24 in 6.0 mi Calm Calm - N/A   Clear
4:53 AM 37.0 °F 34.0 °F 89% 30.22 in 7.0 mi Calm Calm - N/A   Clear
6:53 AM 34.0 °F 32.0 °F 92% 30.21 in 5.0 mi Calm Calm - N/A   Clear
7:53 AM 36.0 °F 34.0 °F 93% 30.23 in 3.0 mi Calm Calm - N/A   Clear
8:53 AM 44.6 °F 39.2 °F 81% 30.24 in 4.0 mi Calm Calm - N/A   Clear
9:53 AM 50.0 °F 42.1 °F 74% 30.22 in 8.0 mi Calm Calm - N/A   Clear
10:53 AM 57.0 °F 44.1 °F 62% 30.20 in 10.0 mi ESE 5.8 mph - N/A   Clear
11:53 AM 62.1 °F 46.9 °F 58% 30.17 in 10.0 mi SSE 8.1 mph - N/A   Clear
12:53 PM 66.0 °F 48.0 °F 52% 30.14 in 10.0 mi SSW 4.6 mph - N/A   Clear
2:53 PM 70.0 °F 46.9 °F 44% 30.04 in 10.0 mi West 5.8 mph - N/A   Clear
3:53 PM 71.1 °F 48.0 °F 44% 30.01 in 10.0 mi South 5.8 mph - N/A   Partly Cloudy
4:53 PM 71.1 °F 50.0 °F 47% 29.98 in 10.0 mi South 3.5 mph - N/A   Mostly Cloudy
5:53 PM 68.0 °F 51.1 °F 55% 29.95 in 10.0 mi SE 5.8 mph - N/A   Clear
6:53 PM 63.0 °F 53.1 °F 70% 29.94 in 10.0 mi SSE 9.2 mph - N/A   Partly Cloudy
7:53 PM 62.1 °F 55.0 °F 78% 29.93 in 10.0 mi SE 9.2 mph - N/A   Clear
8:53 PM 59.0 °F 54.0 °F 83% 29.92 in 10.0 mi SSE 5.8 mph - N/A   Clear
9:53 PM 57.0 °F 54.0 °F 89% 29.90 in 10.0 mi SE 4.6 mph - N/A   Clear
10:53 PM 55.9 °F 54.0 °F 93% 29.88 in 10.0 mi ESE 4.6 mph - N/A   Mostly Cloudy
11:53 PM 59.0 °F 55.9 °F 90% 29.83 in 10.0 mi SE 9.2 mph - N/A   Overcast